SB KEPS @ AMSAT $ORB10154.O Orbital Elements 10154.OSCAR
HR AMSAT ORBITAL ELEMENTS FOR OSCAR SATELLITES FROM WA5QGD FORT WORTH,TX June 3, 2010 Send Subscribe/unsubscribe to KEPS at http://www.amsat.org/mailman/listinfo/keps BID: ORB10154.O TO ALL RADIO AMATEURS BT
Satellite: AO-07 Catalog number: 07530 Epoch time: 10154.63558850 Element set: 792 Inclination: 101.3997 deg RA of node: 171.0273 deg Eccentricity: 0.0011776 Arg of perigee: 302.5727 deg Mean anomaly: 057.4204 deg Mean motion: 12.53578558 rev/day Decay rate: -2.7e-07 rev/day^2 Epoch rev: 62675 Checksum: 308
Satellite: FO-29 Catalog number: 24278 Epoch time: 10153.90590568 Element set: 0321 Inclination: 098.5132 deg RA of node: 345.0123 deg Eccentricity: 0.0350896 Arg of perigee: 160.7517 deg Mean anomaly: 200.7274 deg Mean motion: 13.52950224 rev/day Decay rate: -4.8e-07 rev/day^2 Epoch rev: 68117 Checksum: 298
Satellite: SO-33 Catalog number: 25509 Epoch time: 10154.49033744 Element set: 725 Inclination: 031.4325 deg RA of node: 225.9840 deg Eccentricity: 0.0353934 Arg of perigee: 170.1941 deg Mean anomaly: 190.5764 deg Mean motion: 14.28309915 rev/day Decay rate: 3.87e-06 rev/day^2 Epoch rev: 60609 Checksum: 307
Satellite: RS-22 Catalog number: 27939 Epoch time: 10154.65423810 Element set: 238 Inclination: 097.8937 deg RA of node: 020.7135 deg Eccentricity: 0.0014686 Arg of perigee: 101.0002 deg Mean anomaly: 259.2842 deg Mean motion: 14.63422618 rev/day Decay rate: 1.05e-06 rev/day^2 Epoch rev: 35697 Checksum: 292
Satellite: VO-52 Catalog number: 28650 Epoch time: 10154.62751925 Element set: 518 Inclination: 097.6929 deg RA of node: 208.5903 deg Eccentricity: 0.0026174 Arg of perigee: 323.2636 deg Mean anomaly: 036.6805 deg Mean motion: 14.81752287 rev/day Decay rate: -9.0e-07 rev/day^2 Epoch rev: 27468 Checksum: 325
Satellite: SO-67 Catalog number: 35870 Epoch time: 10154.76831251 Element set: 786 Inclination: 097.3320 deg RA of node: 204.2582 deg Eccentricity: 0.0004256 Arg of perigee: 126.8616 deg Mean anomaly: 010.1208 deg Mean motion: 15.20907311 rev/day Decay rate: 9.02e-06 rev/day^2 Epoch rev: 3941 Checksum: 274
Satellite: HO-68 Catalog number: 36122 Epoch time: 10154.71871419 Element set: 362 Inclination: 100.4689 deg RA of node: 215.2834 deg Eccentricity: 0.0007842 Arg of perigee: 009.3946 deg Mean anomaly: 350.7310 deg Mean motion: 13.16280882 rev/day Decay rate: -4.5e-07 rev/day^2 Epoch rev: 2244 Checksum: 284
/EX SB KEPS @ AMSAT $ORB10154.D Orbital Elements 10154.MICROS
HR AMSAT ORBITAL ELEMENTS FOR THE MICROSATS FROM WA5QGD FORT WORTH,TX June 3, 2010 Send Subscribe/unsubscribe to KEPS at http://www.amsat.org/mailman/listinfo/keps BID: ORB10154.D TO ALL RADIO AMATEURS BT
Satellite: UO-11 Catalog number: 14781 Epoch time: 10153.75504916 Element set: 0257 Inclination: 098.0564 deg RA of node: 205.4522 deg Eccentricity: 0.0008049 Arg of perigee: 288.1135 deg Mean anomaly: 071.9187 deg Mean motion: 14.79804642 rev/day Decay rate: -1.25e-06 rev/day^2 Epoch rev: 40967 Checksum: 308
Satellite: AO-16 Catalog number: 20439 Epoch time: 10153.65403140 Element set: 0912 Inclination: 098.3314 deg RA of node: 112.1331 deg Eccentricity: 0.0010429 Arg of perigee: 205.0311 deg Mean anomaly: 155.0369 deg Mean motion: 14.31862425 rev/day Decay rate: -7.0e-08 rev/day^2 Epoch rev: 06330 Checksum: 235
Satellite: LO-19 Catalog number: 20442 Epoch time: 10154.42263839 Element set: 821 Inclination: 098.2923 deg RA of node: 118.7299 deg Eccentricity: 0.0011337 Arg of perigee: 197.9657 deg Mean anomaly: 162.1119 deg Mean motion: 14.32093993 rev/day Decay rate: -1.0e-07 rev/day^2 Epoch rev: 6358 Checksum: 309
Satellite: AO-27 Catalog number: 22825 Epoch time: 10153.52220951 Element set: 0546 Inclination: 098.4852 deg RA of node: 101.8526 deg Eccentricity: 0.0007749 Arg of perigee: 317.9440 deg Mean anomaly: 042.1149 deg Mean motion: 14.29298761 rev/day Decay rate: 7.7e-07 rev/day^2 Epoch rev: 86995 Checksum: 325
Satellite: IO-26 Catalog number: 22826 Epoch time: 10153.66028545 Element set: 0283 Inclination: 098.4786 deg RA of node: 102.5937 deg Eccentricity: 0.0008295 Arg of perigee: 312.2012 deg Mean anomaly: 047.8467 deg Mean motion: 14.29554492 rev/day Decay rate: 1.1e-07 rev/day^2 Epoch rev: 87008 Checksum: 308
Satellite: GO-32 Catalog number: 25397 Epoch time: 10153.75861863 Element set: 0202 Inclination: 098.3112 deg RA of node: 162.0042 deg Eccentricity: 0.0000788 Arg of perigee: 007.4936 deg Mean anomaly: 352.6239 deg Mean motion: 14.23179187 rev/day Decay rate: 7.2e-07 rev/day^2 Epoch rev: 61799 Checksum: 305
Satellite: NO-44 Catalog number: 26931 Epoch time: 10154.70169753 Element set: 473 Inclination: 067.0515 deg RA of node: 238.7184 deg Eccentricity: 0.0005596 Arg of perigee: 263.1976 deg Mean anomaly: 096.8482 deg Mean motion: 14.29597610 rev/day Decay rate: -2.59e-06 rev/day^2 Epoch rev: 45282 Checksum: 337
Satellite: SO-50 Catalog number: 27607 Epoch time: 10153.66905002 Element set: 0189 Inclination: 064.5589 deg RA of node: 040.6158 deg Eccentricity: 0.0034525 Arg of perigee: 084.3839 deg Mean anomaly: 276.1226 deg Mean motion: 14.71544858 rev/day Decay rate: 2.78e-06 rev/day^2 Epoch rev: 40024 Checksum: 308
Satellite: CO-55 Catalog number: 27844 Epoch time: 10153.58714392 Element set: 0859 Inclination: 098.7080 deg RA of node: 162.7710 deg Eccentricity: 0.0008929 Arg of perigee: 210.6256 deg Mean anomaly: 149.4399 deg Mean motion: 14.20710080 rev/day Decay rate: 6.3e-07 rev/day^2 Epoch rev: 35901 Checksum: 312
Satellite: CO-57 Catalog number: 27848 Epoch time: 10154.53028371 Element set: 810 Inclination: 098.7135 deg RA of node: 162.7922 deg Eccentricity: 0.0008988 Arg of perigee: 211.5504 deg Mean anomaly: 148.5125 deg Mean motion: 14.20502447 rev/day Decay rate: 5.8e-07 rev/day^2 Epoch rev: 35910 Checksum: 300
Satellite: AO-51 Catalog number: 28375 Epoch time: 10154.53629983 Element set: 691 Inclination: 098.0617 deg RA of node: 148.8108 deg Eccentricity: 0.0084067 Arg of perigee: 137.9661 deg Mean anomaly: 222.8020 deg Mean motion: 14.40686365 rev/day Decay rate: 2.1e-07 rev/day^2 Epoch rev: 31154 Checksum: 309
Satellite: GENESAT1 Catalog number: 29655 Epoch time: 10154.28320024 Element set: 85 Inclination: 040.0169 deg RA of node: 119.4531 deg Eccentricity: 0.0009611 Arg of perigee: 227.3503 deg Mean anomaly: 132.6489 deg Mean motion: 15.91181412 rev/day Decay rate: 1.20934e-03 rev/day^2 Epoch rev: 19777 Checksum: 278
Satellite: CP3 Catalog number: 31129 Epoch time: 10153.54009885 Element set: 0593 Inclination: 097.9387 deg RA of node: 193.8935 deg Eccentricity: 0.0100554 Arg of perigee: 279.2202 deg Mean anomaly: 079.7637 deg Mean motion: 14.52261145 rev/day Decay rate: 2.20e-06 rev/day^2 Epoch rev: 16573 Checksum: 310
Satellite: CO-65 Catalog number: 32785 Epoch time: 10153.30737226 Element set: 0698 Inclination: 097.8964 deg RA of node: 218.4389 deg Eccentricity: 0.0014520 Arg of perigee: 337.9876 deg Mean anomaly: 022.0679 deg Mean motion: 14.81659829 rev/day Decay rate: 3.60e-06 rev/day^2 Epoch rev: 11328 Checksum: 345
Satellite: KKS-1 Catalog number: 33493 Epoch time: 10154.74176076 Element set: 540 Inclination: 098.0846 deg RA of node: 274.1196 deg Eccentricity: 0.0019751 Arg of perigee: 180.6885 deg Mean anomaly: 179.4316 deg Mean motion: 14.80999299 rev/day Decay rate: 6.29e-06 rev/day^2 Epoch rev: 7349 Checksum: 346
Satellite: SOHLA-1 Catalog number: 33496 Epoch time: 10153.86169324 Element set: 0120 Inclination: 098.0574 deg RA of node: 263.1227 deg Eccentricity: 0.0005587 Arg of perigee: 243.6419 deg Mean anomaly: 116.4210 deg Mean motion: 14.69495895 rev/day Decay rate: 6.7e-07 rev/day^2 Epoch rev: 07277 Checksum: 310
/EX SB KEPS @ AMSAT $ORB10154.W Orbital Elements 10154.WEATHER
HR AMSAT ORBITAL ELEMENTS FOR WEATHER SATELLITES FROM WA5QGD FORT WORTH,TX June 3, 2010 Send Subscribe/unsubscribe to KEPS at http://www.amsat.org/mailman/listinfo/keps BID: ORB10154.W TO ALL RADIO AMATEURS BT
Satellite: NOAA-10 Catalog number: 16969 Epoch time: 10153.64302015 Element set: 0086 Inclination: 098.6564 deg RA of node: 182.7468 deg Eccentricity: 0.0011356 Arg of perigee: 252.9499 deg Mean anomaly: 107.0420 deg Mean motion: 14.27417503 rev/day Decay rate: -4.9e-07 rev/day^2 Epoch rev: 23350 Checksum: 293
Satellite: NOAA-11 Catalog number: 19531 Epoch time: 10153.74381152 Element set: 0097 Inclination: 098.7695 deg RA of node: 243.0135 deg Eccentricity: 0.0011404 Arg of perigee: 185.0224 deg Mean anomaly: 175.0842 deg Mean motion: 14.14926109 rev/day Decay rate: -1.43e-06 rev/day^2 Epoch rev: 11909 Checksum: 275
Satellite: NOAA-12 Catalog number: 21263 Epoch time: 10153.96339775 Element set: 0585 Inclination: 098.7638 deg RA of node: 167.1260 deg Eccentricity: 0.0011997 Arg of perigee: 203.6702 deg Mean anomaly: 156.3924 deg Mean motion: 14.25635431 rev/day Decay rate: 1.8e-07 rev/day^2 Epoch rev: 99037 Checksum: 317
Satellite: MET-3/5 Catalog number: 21655 Epoch time: 10153.82211858 Element set: 827 Inclination: 082.5574 deg RA of node: 318.7854 deg Eccentricity: 0.0014230 Arg of perigee: 029.9227 deg Mean anomaly: 330.2732 deg Mean motion: 13.17021626 rev/day Decay rate: 5.1e-07 rev/day^2 Epoch rev: 90378 Checksum: 290
Satellite: MET-2/21 Catalog number: 22782 Epoch time: 10153.75657435 Element set: 792 Inclination: 082.5479 deg RA of node: 263.8872 deg Eccentricity: 0.0023992 Arg of perigee: 083.8516 deg Mean anomaly: 276.5387 deg Mean motion: 13.83646160 rev/day Decay rate: 6.9e-07 rev/day^2 Epoch rev: 84608 Checksum: 351
Satellite: OKEAN-4 Catalog number: 23317 Epoch time: 10154.69056637 Element set: 249 Inclination: 082.5404 deg RA of node: 006.4590 deg Eccentricity: 0.0020529 Arg of perigee: 288.7001 deg Mean anomaly: 071.2003 deg Mean motion: 14.82822342 rev/day Decay rate: 2.61e-06 rev/day^2 Epoch rev: 84445 Checksum: 272
